This demonstration page uses our WeatherBlox Daily Observations layout. Learn more.

38.89511, -77.03637

Hourly Observations for April 14, 2017

Temp ( °F °C ) Dew Point ( °F °C ) Humidity (%) Winds ( mph kmh ) Pressure ( in mb ) Visibility ( mi km ) Precip ( " mm )
12:52 am 00:52 Mostly Cloudy 60 15.6 37 2.8 42 42 Calm 30.36 1028 10 16.09344 0 0
1:52 am 01:52 Partly Cloudy 58 14.4 37 2.8 46 46 Calm 30.36 1028 10 16.09344 0 0
2:52 am 02:52 Mostly Cloudy 58 14.4 36 2.2 44 44 Calm 30.36 1028 10 16.09344 0 0
3:52 am 03:52 Mostly Cloudy 56 13.3 41 5 57 57 SW 3 6 30.36 1028 10 16.09344 0 0
4:52 am 04:52 Mostly Cloudy 56 13.3 45 7.2 67 67 Calm 30.36 1028 10 16.09344 0 0
5:52 am 05:52 Cloudy 56 13.3 42 5.6 60 60 NE 7 11 30.33 1027 10 16.09344 0 0
6:52 am 06:52 Mostly Cloudy 54 12.2 41 5 62 62 ENE 8 13 30.36 1028 10 16.09344 0 0
7:52 am 07:52 Mostly Cloudy 55 12.8 38 3.3 53 53 NE 8 13 30.36 1028 10 16.09344 0 0
8:52 am 08:52 Mostly Cloudy 57 13.9 37 2.8 47 47 ENE 7 11 30.36 1028 10 16.09344 0 0
9:52 am 09:52 Cloudy 59 15 37 2.8 44 44 E 7 11 30.36 1028 10 16.09344 0 0
10:52 am 10:52 Mostly Cloudy 62 16.7 38 3.3 41 41 N 3 6 30.36 1028 10 16.09344 0 0
11:52 am 11:52 Partly Cloudy 65 18.3 41 5 42 42 NE 9 15 30.36 1028 10 16.09344 0 0
12:52 pm 12:52 Mostly Sunny 68 20 39 3.9 35 35 Calm 30.36 1028 10 16.09344 0 0
1:52 pm 13:52 Partly Cloudy 69 20.6 38 3.3 32 32 Calm 30.33 1027 10 16.09344 0 0
2:52 pm 14:52 Mostly Sunny 72 22.2 40 4.4 31 31 NNE 6 9 30.3 1026 10 16.09344 0 0
3:52 pm 15:52 Partly Cloudy 72 22.2 40 4.4 31 31 NNE 5 7 30.27 1025 10 16.09344 0 0
4:52 pm 16:52 Partly Cloudy 71 21.7 45 7.2 39 39 E 8 13 30.27 1025 10 16.09344 0 0
5:52 pm 17:52 Mostly Sunny 69 20.6 44 6.7 41 41 ESE 8 13 30.27 1025 10 16.09344 0 0
6:52 pm 18:52 Mostly Sunny 67 19.4 46 7.8 47 47 ESE 12 19 30.3 1026 10 16.09344 0 0
7:52 pm 19:52 Mostly Clear 64 17.8 46 7.8 52 52 ESE 6 9 30.3 1026 10 16.09344 0 0
8:52 pm 20:52 Mostly Clear 62 16.7 43 6.1 50 50 ESE 5 7 30.33 1027 10 16.09344 0 0
9:52 pm 21:52 Clear 62 16.7 43 6.1 50 50 SE 7 11 30.33 1027 10 16.09344 0 0
10:52 pm 22:52 Partly Cloudy 60 15.6 41 5 50 50 SSE 8 13 30.36 1028 10 16.09344 0 0
11:52 pm 23:52 Mostly Clear 58 14.4 43 6.1 58 58 SSE 5 7 30.36 1028 10 16.09344 0 0

Powered by AerisWeather